Regional Weather Roundup
Issued by NWS Northern Indiana

Home | Current Version | Previous Version | Graphics & Text | Print | Product List | Glossary On
Versions: 1 2 3 4 5 6 7 8 9 10 11 12 13 14 15 16 17 18 19 20 21 22 23 24 25 26 27 28 29 30 31 32 33 34 35 36 37 38 39 40 41 42 43 44 45 46 47 48 49 50
000
ASUS43 KIWX 021210
RWRIWX

KIWX WEATHER ROUNDUP
NATIONAL WEATHER SERVICE NORTHERN INDIANA
800 AM EDT THU JUL 02 2015

NOTE: "FAIR" INDICATES FEW OR NO CLOUDS BELOW 12,000 FEET WITH NO
SIGNIFICANT WEATHER AND/OR OBSTRUCTIONS TO VISIBILITY.

* THESE STATIONS ARE NOT UNDER NWS QUALITY CONTROL. THEY ALSO MAY NOT
  REPORT WEATHER SUCH AS PRECIPITATION OR FOG.

INZ001>027-021300-
NORTHERN INDIANA

CITY           SKY/WX    TMP DP  RH WIND       PRES   REMARKS
GARY*          CLOUDY    61  57  88 N9        29.98R
VALPARAISO     SUNNY     57  54  89 NE5       29.98R
6HR MIN TEMP:  54; 6HR MAX TEMP:  58;

SOUTH BEND     SUNNY     57  54  89 E6        29.98R
6HR MIN TEMP:  53; 6HR MAX TEMP:  57;

ELKHART*       SUNNY     57  55  94 NE9       29.97R
GOSHEN         SUNNY     57  54  89 NE9       29.97R
6HR MIN TEMP:  55; 6HR MAX TEMP:  57;

ANGOLA*          N/A     57  45  62 E9        29.98R
FORT WAYNE     PTSUNNY   62  57  83 E9        29.95S
6HR MIN TEMP:  58; 6HR MAX TEMP:  62;

PERU/GRISSOM   CLOUDY    58  55  89 NE8       29.93S
6HR MIN TEMP:  57; 6HR MAX TEMP:  59;


$$
INZ028>050-021300-
CENTRAL INDIANA

CITY           SKY/WX    TMP DP  RH WIND       PRES   REMARKS
LAFAYETTE      PTSUNNY   57  54  89 NE9       29.92F
6HR MIN TEMP:  57; 6HR MAX TEMP:  59;

KOKOMO*        CLOUDY    61  54  77 NE8       29.93S
6HR MIN TEMP:  57; 6HR MAX TEMP:  61;

MUNCIE*        PTSUNNY   62  57  83 NE7       29.91F
6HR MIN TEMP:  62; 6HR MAX TEMP:  64;

INDIANAPOLIS   PTSUNNY   63  55  75 NE8       29.88F
6HR MIN TEMP:  62; 6HR MAX TEMP:  67;


$$
MIZ043>046-050>051-056>058-064>065-071>073-077>080-021300-
SOUTHWEST LOWER MICHIGAN

CITY           SKY/WX    TMP DP  RH WIND       PRES   REMARKS
BATTLE CREEK   CLOUDY    58  55  90 NE7       30.00R
6HR MIN TEMP:  53; 6HR MAX TEMP:  58;

BENTON HARBOR  SUNNY     56  53  90 NE6       29.98R
6HR MIN TEMP:  49; 6HR MAX TEMP:  56;

COLDWATER*     CLOUDY    55  55  99 E7        29.99R FOG
6HR MIN TEMP:  52; 6HR MAX TEMP:  55;

HILLSDALE*     CLOUDY    57  57 100 E6        29.99R FOG
6HR MIN TEMP:  53; 6HR MAX TEMP:  57;

HOLLAND        PTSUNNY   56  52  86 NE5       30.01R
6HR MIN TEMP:  53; 6HR MAX TEMP:  56;

GRAND RAPIDS   MOSUNNY   55  52  89 E7        30.00S
6HR MIN TEMP:  51; 6HR MAX TEMP:  55;

KALAMAZOO      FOG       56  54  93 CALM      30.00R VSB 1/4
6HR MIN TEMP:  52; 6HR MAX TEMP:  56;

STURGIS*       SUNNY     55  55 100 NE8       29.97R
THREE RIVERS*  FAIR      57  55  93 E3        29.98S

$$
OHZ001>008-015>018-024>025-021300-
NORTHWEST OHIO

CITY           SKY/WX    TMP DP  RH WIND       PRES   REMARKS
DEFIANCE       CLOUDY    61  58  90 NE8       29.97R FOG
6HR MIN TEMP:  60; 6HR MAX TEMP:  62;

FINDLAY        CLOUDY    64  60  87 NE12      29.95R
6HR MIN TEMP:  63; 6HR MAX TEMP:  65;

TOLEDO EXPRESS PTSUNNY   61  58  90 NE8       29.97R
6HR MIN TEMP:  58; 6HR MAX TEMP:  62;

TOLEDO METCALF CLOUDY    64  58  80 NE7       29.98R
6HR MIN TEMP:  63; 6HR MAX TEMP:  66;

LIMA           CLOUDY    63  61  93 NE7       29.94R FOG
6HR MIN TEMP:  60; 6HR MAX TEMP:  63;


$$
AND FOR LAKE MICHIGAN COASTAL AND OPEN LAKE BUOY OBSERVATIONS

STATION/POSITION TEMP    WIND        PRES    VSBY  WAVE
                 AIR SEA DIR/SP/G                  HT/PER
                 (F)     (DEG/KT/KT) (MB)    (MI)  (FT/S)
CALUMET HARBOR    59      10/  8/ 14   N/A
MICHIGAN CITY     57      40/ 14/ 16   N/A
BURNS HARBOR      60      60/ 16/ 17 1014.9S
SAINT JOSEPH      56      10/  3/  5   N/A
4 MI NW BRIDGMAN  57 62                N/A           2/ 5
MICHIGAN CITY     59 64   80/ 10/ 14   N/A           3/ 4

$$
&&


USA.gov is the U.S. government's official web portal to all federal, state and local government web resources and services.